This demonstration page uses our WeatherBlox Daily Observations layout. Learn more.

Left ArrowRight Arrow

39.08367, -84.50855

Hourly Observations for June 25, 2020

Temp ( °F °C ) Dew Point ( °F °C ) Humidity (%) Winds ( mph kmh ) Pressure ( in mb ) Visibility ( mi km ) Precip ( " mm )
12:53 am 00:53 Clear 62 16.7 59 15 90 90 Calm 29.93 1014 10 16.0934 0 0
1:53 am 01:53 Clear 61 16.1 59 15 93 93 Calm 29.94 1014 10 16.0934 0 0
2:53 am 02:53 Clear 59 15 57 13.9 93 93 Calm 29.93 1014 9 14.48406 0 0
3:15 am 03:15 Clear with Mist and Fog 59 15 57 13.9 93 93 Calm 29.95 1014 1.75 2.816345 0 0
3:27 am 03:27 Clear with Mist and Fog 59 15 57 13.9 93 93 Calm 29.95 1014 3 4.82802 0 0
3:53 am 03:53 Clear with Mist and Fog 59 15 58 14.4 96 96 Calm 29.94 1014 6 9.65604 0 0
4:10 am 04:10 Clear with Mist and Fog 58 14.4 57 13.9 97 97 Calm 29.96 1015 1.5 2.41401 0 0
4:46 am 04:46 Clear with Mist and Fog 58 14.4 57 13.9 97 97 Calm 29.96 1015 4 6.43736 0 0
4:53 am 04:53 Clear 58 14.4 57 13.9 97 97 Calm 29.96 1014 7 11.26538 0 0
5:42 am 05:42 Clear with Mist and Fog 57 13.9 55 12.8 93 93 Calm 29.97 1015 0.75 1.207005 0 0
5:53 am 05:53 Clear with Mist and Fog 57 13.9 55 12.8 93 93 Calm 29.97 1015 1 1.60934 0 0
6:06 am 06:06 Clear with Mist and Fog 58 14.4 56 13.3 93 93 Calm 29.98 1015 3 4.82802 0 0
6:13 am 06:13 Clear with Mist and Fog 58 14.4 56 13.3 93 93 Calm 29.98 1015 0.75 1.207005 0 0
6:23 am 06:23 Sunny with Fog 57 13.9 56 13.3 96 96 Calm 29.98 1015 0.25 0.402335 0 0
6:30 am 06:30 Mostly Cloudy with Fog 57 13.9 56 13.3 96 96 Calm 29.99 1016 0.5 0.80467 0 0
6:41 am 06:41 Partly Cloudy with Mist and Fog 57 13.9 56 13.3 96 96 Calm 29.99 1016 2 3.21868 0 0
6:48 am 06:48 Mostly Sunny 57 14 57 14 100 100 Calm 29.99 1016 4 6.43736 0 0
6:53 am 06:53 Mostly Sunny 58 14.4 57 13.9 97 97 Calm 29.98 1015 10 16.0934 0 0
7:53 am 07:53 Mostly Sunny 62 16.7 60 15.6 93 93 Calm 29.99 1016 10 16.0934 0 0
8:53 am 08:53 Sunny 68 20 63 17.2 84 84 Calm 30.01 1016 10 16.0934 0 0
9:53 am 09:53 Sunny 75 23.9 62 16.7 64 64 WSW 7 11 30.01 1016 10 16.0934 0 0
10:53 am 10:53 Sunny 79 26.1 56 13.3 45 45 W 10 17 30.02 1017 10 16.0934 0 0
11:53 am 11:53 Sunny 81 27.2 58 14.4 45 45 W 12 19 30.02 1017 10 16.0934 0 0
12:53 pm 12:53 Mostly Cloudy 80 26.7 57 13.9 45 45 WSW 8 13 30.03 1017 10 16.0934 0 0
1:53 pm 13:53 Mostly Cloudy 81 27.2 55 12.8 41 41 W 13 20 30.02 1017 10 16.0934 0 0
2:53 pm 14:53 Partly Cloudy 84 28.9 56 13.3 38 38 WSW 9 15 30.01 1016 10 16.0934 0 0
3:53 pm 15:53 Mostly Sunny 84 28.9 56 13.3 38 38 SW 10 17 30 1016 10 16.0934 0 0
4:53 pm 16:53 Cloudy 82 27.8 54 12.2 38 38 W 9 15 29.99 1016 10 16.0934 0 0
5:53 pm 17:53 Partly Cloudy 84 28.9 55 12.8 37 37 W 9 15 29.99 1016 10 16.0934 0.001 0.001
6:53 pm 18:53 Partly Cloudy 81 27.2 55 12.8 41 41 VRB 6 9 29.99 1016 10 16.0934 0 0
7:53 pm 19:53 Mostly Sunny 82 27.8 54 12.2 38 38 W 10 17 29.99 1016 10 16.0934 0 0
8:53 pm 20:53 Sunny 75 23.9 56 13.3 52 52 SW 6 9 30 1016 10 16.0934 0 0
9:53 pm 21:53 Clear 69 20.6 59 15 70 70 Calm 30.01 1016 10 16.0934 0 0
10:53 pm 22:53 Clear 67 19.4 59 15 76 76 Calm 30.03 1017 10 16.0934 0 0
11:53 pm 23:53 Clear 65 18.3 60 15.6 84 84 Calm 30.04 1017 10 16.0934 0 0

Powered by AerisWeather